,,Stat6,,Stat2,,Stat8,,Stat9,,Stat10,,Wind1,,Wind1,
time,status,PA1M_AVG,status,PR1M_SUM,status,RH1M_AVG,status,SR1M_AVG,status,TA1M_AVG,status,W1dAve1m,status,W1sAve1m,
2007-03-12, 00:00:00,VALID,917.383,VALID,0,VALID,93.0904,VALID,51.8934,VALID,20.724,VALID,153,VALID,2.5364,
2007-03-12, 00:01:00,VALID,917.407,VALID,0,VALID,93.1628,VALID,53.8972,VALID,20.7564,VALID,141,VALID,1.6685,
2007-03-12, 00:02:00,VALID,917.428,VALID,0,VALID,93.2404,VALID,55.5103,VALID,20.7664,VALID,132,VALID,1.36026,
2007-03-12, 00:03:00,VALID,917.442,VALID,0,VALID,93.2124,VALID,57.9216,VALID,20.7632,VALID,130,VALID,1.79723,
2007-03-12, 00:04:00,VALID,917.452,VALID,0,VALID,93.145,VALID,61.0461,VALID,20.7726,VALID,142,VALID,1.5532,
2007-03-12, 00:05:00,VALID,917.441,VALID,0,VALID,93.0891,VALID,63.0159,VALID,20.7929,VALID,129,VALID,1.83708,
2007-03-12, 00:06:00,VALID,917.443,VALID,0,VALID,93.1946,VALID,63.78,VALID,20.8056,VALID,148,VALID,2.14276,
2007-03-12, 00:07:00,VALID,917.453,VALID,0,VALID,93.4413,VALID,67.0743,VALID,20.7989,VALID,156,VALID,1.67274,
2007-03-12, 00:08:00,VALID,917.454,VALID,0,VALID,93.4757,VALID,64.5102,VALID,20.7959,VALID,154,VALID,1.96037,
2007-03-12, 00:09:00,VALID,917.462,VALID,0,VALID,93.6778,VALID,65.5969,VALID,20.7799,VALID,129,VALID,1.67773,
2007-03-12, 00:10:00,VALID,917.478,VALID,0,VALID,93.8737,VALID,68.0761,VALID,20.7637,VALID,143,VALID,1.99107,
2007-03-12, 00:11:00,VALID,917.501,VALID,0,VALID,93.8584,VALID,73.7647,VALID,20.7505,VALID,139,VALID,2.26182,
2007-03-12, 00:12:00,VALID,917.52,VALID,0,VALID,93.3523,VALID,80.4722,VALID,20.7505,VALID,141,VALID,2.28779,
2007-03-12, 00:13:00,VALID,917.565,VALID,0,VALID,93.0115,VALID,86.5513,VALID,20.7856,VALID,161,VALID,2.20064,
2007-03-12, 00:14:00,VALID,917.607,VALID,0,VALID,93.262,VALID,101.545,VALID,20.8276,VALID,140,VALID,1.19401,
2007-03-12, 00:15:00,VALID,917.644,VALID,0,VALID,93.4985,VALID,128.46,VALID,20.8705,VALID,173,VALID,1.6033,
2007-03-12, 00:16:00,VALID,917.676,VALID,0,VALID,93.304,VALID,138.054,VALID,20.8797,VALID,168,VALID,2.45153,
2007-03-12, 00:17:00,VALID,917.691,VALID,0,VALID,93.4439,VALID,136.424,VALID,20.9195,VALID,168,VALID,1.75614,
2007-03-12, 00:18:00,VALID,917.703,VALID,0,VALID,93.4311,VALID,134.556,VALID,20.9484,VALID,172,VALID,1.97228,
2007-03-12, 00:19:00,VALID,917.715,VALID,0,VALID,92.9212,VALID,133.13,VALID,20.9647,VALID,153,VALID,2.81996,
2007-03-12, 00:20:00,VALID,917.724,VALID,0,VALID,92.5003,VALID,137.782,VALID,20.9614,VALID,152,VALID,2.29781,
2007-03-12, 00:21:00,VALID,917.745,VALID,0,VALID,92.5703,VALID,133.605,VALID,20.9974,VALID,151,VALID,2.14648,
2007-03-12, 00:22:00,VALID,917.759,VALID,0,VALID,92.6529,VALID,119.919,VALID,21.0039,VALID,131,VALID,2.00018,
2007-03-12, 00:23:00,VALID,917.763,VALID,0,VALID,92.6618,VALID,78.1967,VALID,20.9971,VALID,121,VALID,2.16071,
2007-03-12, 00:24:00,VALID,917.756,VALID,0,VALID,92.6796,VALID,79.1646,VALID,20.9576,VALID,136,VALID,1.91202,
2007-03-12, 00:25:00,VALID,917.752,VALID,0,VALID,92.6695,VALID,76.1081,VALID,20.9319,VALID,140,VALID,1.7096,
2007-03-12, 00:26:00,VALID,917.766,VALID,0,VALID,92.5843,VALID,89.4041,VALID,20.939,VALID,130,VALID,2.61042,
2007-03-12, 00:27:00,VALID,917.787,VALID,0,VALID,92.6249,VALID,83.3589,VALID,20.9257,VALID,146,VALID,2.20666,
2007-03-12, 00:28:00,VALID,917.798,VALID,0,VALID,92.85,VALID,91.1361,VALID,20.9125,VALID,134,VALID,2.62691,
2007-03-12, 00:29:00,VALID,917.809,VALID,0,VALID,92.85,VALID,166.276,VALID,20.9162,VALID,134,VALID,2.56354,
2007-03-12, 00:30:00,VALID,917.832,VALID,0,VALID,92.5588,VALID,172.254,VALID,20.9422,VALID,135,VALID,2.04707,
2007-03-12, 00:31:00,VALID,917.864,VALID,0,VALID,92.0578,VALID,178.469,VALID,21.0069,VALID,139,VALID,2.61496,
2007-03-12, 00:32:00,VALID,917.893,VALID,0,VALID,91.8226,VALID,194.787,VALID,21.088,VALID,130,VALID,2.14968,
2007-03-12, 00:33:00,VALID,917.942,VALID,0,VALID,91.4462,VALID,211.123,VALID,21.1721,VALID,134,VALID,2.6713,
2007-03-12, 00:34:00,VALID,917.954,VALID,0,VALID,91.0723,VALID,209.153,VALID,21.2406,VALID,116,VALID,2.50648,
2007-03-12, 00:35:00,VALID,917.991,VALID,0,VALID,91.1512,VALID,217.236,VALID,21.3185,VALID,144,VALID,1.78706,
2007-03-12, 00:36:00,VALID,917.994,VALID,0,VALID,90.8689,VALID,220.751,VALID,21.3999,VALID,146,VALID,1.86464,
2007-03-12, 00:37:00,VALID,918.01,VALID,0,VALID,89.9291,VALID,224.368,VALID,21.4551,VALID,144,VALID,2.83416,
2007-03-12, 00:38:00,VALID,918.036,VALID,0,VALID,89.2158,VALID,223.722,VALID,21.494,VALID,137,VALID,3.05227,
2007-03-12, 00:39:00,VALID,918.065,VALID,0,VALID,89.7651,VALID,214.909,VALID,21.546,VALID,143,VALID,2.0524,
2007-03-12, 00:40:00,VALID,918.099,VALID,0,VALID,89.8694,VALID,233.979,VALID,21.5979,VALID,145,VALID,1.9613,
2007-03-12, 00:41:00,VALID,918.141,VALID,0,VALID,90.0105,VALID,239.65,VALID,21.6304,VALID,154,VALID,1.68941,
2007-03-12, 00:42:00,VALID,918.177,VALID,0,VALID,88.9716,VALID,245.611,VALID,21.6434,VALID,144,VALID,2.45952,
2007-03-12, 00:43:00,VALID,918.204,VALID,0,VALID,89.3061,VALID,252.879,VALID,21.6953,VALID,155,VALID,1.46768,
2007-03-12, 00:44:00,VALID,918.215,VALID,0,VALID,88.5634,VALID,254.678,VALID,21.7473,VALID,142,VALID,1.77246,
2007-03-12, 00:45:00,VALID,918.231,VALID,0,VALID,88.0739,VALID,254.339,VALID,21.8098,VALID,125,VALID,2.34718,
2007-03-12, 00:46:00,VALID,918.253,VALID,0,VALID,88.3562,VALID,256.122,VALID,21.8417,VALID,133,VALID,1.9851,
2007-03-12, 00:47:00,VALID,918.27,VALID,0,VALID,88.3943,VALID,264.765,VALID,21.9142,VALID,148,VALID,2.19904,
2007-03-12, 00:48:00,VALID,918.313,VALID,0,VALID,87.213,VALID,281.882,VALID,21.8977,VALID,144,VALID,3.00036,
2007-03-12, 00:49:00,VALID,918.312,VALID,0,VALID,87.4686,VALID,275.939,VALID,21.8818,VALID,130,VALID,2.15518,
2007-03-12, 00:50:00,VALID,918.297,VALID,0,VALID,88.1794,VALID,277.416,VALID,21.9169,VALID,96,VALID,0.993823,
2007-03-12, 00:51:00,VALID,918.308,VALID,0,VALID,87.2461,VALID,288.284,VALID,22.0022,VALID,124,VALID,2.43638,
2007-03-12, 00:52:00,VALID,918.32,VALID,0,VALID,88.1273,VALID,297.912,VALID,22.0143,VALID,130,VALID,1.82717,
2007-03-12, 00:53:00,VALID,918.306,VALID,0,VALID,88.0103,VALID,302.123,VALID,22.0411,VALID,148,VALID,1.75249,
2007-03-12, 00:54:00,VALID,918.299,VALID,0,VALID,88.3104,VALID,304.008,VALID,22.1093,VALID,160,VALID,1.8681,
2007-03-12, 00:55:00,VALID,918.293,VALID,0,VALID,87.5207,VALID,301.8,VALID,22.1513,VALID,153,VALID,1.97266,
2007-03-12, 00:56:00,VALID,918.281,VALID,0,VALID,87.6288,VALID,302.021,VALID,22.177,VALID,156,VALID,1.60938,
2007-03-12, 00:57:00,VALID,918.274,VALID,0,VALID,87.4203,VALID,308.253,VALID,22.2708,VALID,140,VALID,1.3283,
2007-03-12, 00:58:00,VALID,918.277,VALID,0,VALID,86.6395,VALID,311.921,VALID,22.3163,VALID,123,VALID,2.20352,
2007-03-12, 00:59:00,VALID,918.293,VALID,0,VALID,87.2868,VALID,321.023,VALID,22.3366,VALID,133,VALID,1.4556,
2007-03-12, 01:00:00,VALID,918.292,VALID,0,VALID,86.6662,VALID,324.758,VALID,22.3815,VALID,182,VALID,1.43638,
2007-03-12, 01:01:00,VALID,918.303,VALID,0,VALID,85.7774,VALID,326.762,VALID,22.4533,VALID,155,VALID,1.8005,
2007-03-12, 01:02:00,VALID,918.313,VALID,0,VALID,84.8605,VALID,336.866,VALID,22.4754,VALID,164,VALID,1.64572,
2007-03-12, 01:03:00,VALID,918.335,VALID,0,VALID,86.4437,VALID,346.222,VALID,22.5407,VALID,124,VALID,1.46771,
2007-03-12, 01:04:00,VALID,918.354,VALID,0,VALID,86.4767,VALID,338.445,VALID,22.6094,VALID,123,VALID,1.64735,
2007-03-12, 01:05:00,VALID,918.376,VALID,0,VALID,86.7603,VALID,345.305,VALID,22.6549,VALID,147,VALID,1.7468,
2007-03-12, 01:06:00,VALID,918.4,VALID,0,VALID,86.0673,VALID,345.22,VALID,22.6741,VALID,152,VALID,1.96365,
2007-03-12, 01:07:00,VALID,918.425,VALID,0,VALID,85.7888,VALID,351.588,VALID,22.6561,VALID,163,VALID,1.66053,
2007-03-12, 01:08:00,VALID,918.419,VALID,0,VALID,85.6057,VALID,363.339,VALID,22.6529,VALID,149,VALID,1.87118,
2007-03-12, 01:09:00,VALID,918.448,VALID,0,VALID,85.8053,VALID,360.011,VALID,22.6694,VALID,169,VALID,2.1317,
2007-03-12, 01:10:00,VALID,918.493,VALID,0,VALID,85.1034,VALID,366.854,VALID,22.6792,VALID,154,VALID,2.3869,
2007-03-12, 01:11:00,VALID,918.53,VALID,0,VALID,85.6171,VALID,355.782,VALID,22.6529,VALID,157,VALID,2.12285,
2007-03-12, 01:12:00,VALID,918.557,VALID,0,VALID,85.4798,VALID,335.032,VALID,22.6402,VALID,158,VALID,1.96987,
2007-03-12, 01:13:00,VALID,918.597,VALID,0,VALID,85.8778,VALID,338.037,VALID,22.6626,VALID,134,VALID,1.26211,
2007-03-12, 01:14:00,VALID,918.625,VALID,0,VALID,85.3336,VALID,292.767,VALID,22.6892,VALID,148,VALID,2.05804,
2007-03-12, 01:15:00,VALID,918.642,VALID,0,VALID,85.5141,VALID,263.899,VALID,22.647,VALID,143,VALID,2.33135,
2007-03-12, 01:16:00,VALID,918.649,VALID,0,VALID,85.3298,VALID,350.501,VALID,22.572,VALID,155,VALID,2.77649,
2007-03-12, 01:17:00,VALID,918.645,VALID,0,VALID,85.5103,VALID,221.226,VALID,22.52,VALID,161,VALID,1.83906,
2007-03-12, 01:18:00,VALID,918.652,VALID,0,VALID,85.5523,VALID,184.31,VALID,22.5144,VALID,153,VALID,2.14081,
2007-03-12, 01:19:00,VALID,918.662,VALID,0,VALID,85.8511,VALID,194.227,VALID,22.4391,VALID,149,VALID,2.31831,
2007-03-12, 01:20:00,VALID,918.678,VALID,0,VALID,86.3025,VALID,169.146,VALID,22.381,VALID,143,VALID,1.84268,
2007-03-12, 01:21:00,VALID,918.691,VALID,0,VALID,86.8875,VALID,172.423,VALID,22.3615,VALID,128,VALID,1.38567,
2007-03-12, 01:22:00,VALID,918.693,VALID,0,VALID,87.0032,VALID,281.372,VALID,22.3612,VALID,129,VALID,1.76181,
2007-03-12, 01:23:00,VALID,918.695,VALID,0,VALID,87.0922,VALID,301.868,VALID,22.4034,VALID,128,VALID,1.87282,
2007-03-12, 01:24:00,VALID,918.71,VALID,0,VALID,87.0248,VALID,412.159,VALID,22.5014,VALID,140,VALID,1.43241,
2007-03-12, 01:25:00,VALID,918.713,VALID,0,VALID,85.785,VALID,408.134,VALID,22.585,VALID,148,VALID,2.45203,
2007-03-12, 01:26:00,VALID,918.736,VALID,0,VALID,86.2351,VALID,284.361,VALID,22.6537,VALID,147,VALID,1.91824,
2007-03-12, 01:27:00,VALID,918.748,VALID,0,VALID,86.8086,VALID,316.693,VALID,22.7509,VALID,111,VALID,1.41502,
2007-03-12, 01:28:00,VALID,918.766,VALID,0,VALID,86.4424,VALID,221.073,VALID,22.8318,VALID,123,VALID,1.70022,
2007-03-12, 01:29:00,VALID,918.794,VALID,0,VALID,85.1288,VALID,256.088,VALID,22.8391,VALID,124,VALID,1.79688,
2007-03-12, 01:30:00,VALID,918.812,VALID,0,VALID,84.3443,VALID,231.72,VALID,22.7896,VALID,108,VALID,1.21693,
2007-03-12, 01:31:00,VALID,918.852,VALID,0,VALID,85.2751,VALID,339.685,VALID,22.8622,VALID,123,VALID,1.14499,
2007-03-12, 01:32:00,VALID,918.876,VALID,0,VALID,85.0436,VALID,393.361,VALID,22.9295,VALID,142,VALID,1.60268,
2007-03-12, 01:33:00,VALID,918.909,VALID,0,VALID,83.8916,VALID,359.569,VALID,23.0148,VALID,133,VALID,2.54129,
2007-03-12, 01:34:00,VALID,918.924,VALID,0,VALID,83.0854,VALID,232.298,VALID,22.9977,VALID,123,VALID,1.97711,
2007-03-12, 01:35:00,VALID,918.931,VALID,0,VALID,82.9684,VALID,253.371,VALID,23.024,VALID,163,VALID,1.95122,
2007-03-12, 01:36:00,VALID,918.939,VALID,0,VALID,81.8634,VALID,204.076,VALID,22.9986,VALID,166,VALID,2.21948,
2007-03-12, 01:37:00,VALID,918.952,VALID,0,VALID,82.3898,VALID,299.525,VALID,22.9629,VALID,148,VALID,1.89117,
2007-03-12, 01:38:00,VALID,918.977,VALID,0,VALID,82.8387,VALID,320.598,VALID,22.9602,VALID,116,VALID,1.57161,
2007-03-12, 01:39:00,VALID,918.993,VALID,0,VALID,83.1668,VALID,263.627,VALID,22.9304,VALID,114,VALID,2.21403,
2007-03-12, 01:40:00,VALID,919.014,VALID,0,VALID,83.1718,VALID,341.247,VALID,22.8749,VALID,106,VALID,2.33359,
2007-03-12, 01:41:00,VALID,919.017,VALID,0,VALID,83.0955,VALID,220.53,VALID,22.8256,VALID,109,VALID,2.01321,
2007-03-12, 01:42:00,VALID,919.046,VALID,0,VALID,83.3003,VALID,202.938,VALID,22.7842,VALID,100,VALID,1.67408,
2007-03-12, 01:43:00,VALID,919.063,VALID,0,VALID,83.0485,VALID,198.642,VALID,22.7476,VALID,103,VALID,1.72039,
2007-03-12, 01:44:00,VALID,919.082,VALID,0,VALID,83.1693,VALID,276.278,VALID,22.7323,VALID,126,VALID,2.08939,
2007-03-12, 01:45:00,VALID,919.101,VALID,0,VALID,83.6792,VALID,532.892,VALID,22.7715,VALID,107,VALID,1.53106,
2007-03-12, 01:46:00,VALID,919.1,VALID,0,VALID,81.8417,VALID,499.457,VALID,22.8492,VALID,105,VALID,1.99878,
2007-03-12, 01:47:00,VALID,919.122,VALID,0,VALID,81.9308,VALID,228.664,VALID,23.0015,VALID,88,VALID,1.78887,
2007-03-12, 01:48:00,VALID,919.135,VALID,0,VALID,82.255,VALID,199.576,VALID,23.0857,VALID,132,VALID,0.813643,
2007-03-12, 01:49:00,VALID,919.146,VALID,0,VALID,82.3224,VALID,173.221,VALID,23.1634,VALID,142,VALID,1.22675,
2007-03-12, 01:50:00,VALID,919.152,VALID,0,VALID,82.9671,VALID,164.697,VALID,23.2094,VALID,78,VALID,1.31001,
2007-03-12, 01:51:00,VALID,919.17,VALID,0,VALID,82.0363,VALID,163.152,VALID,23.1477,VALID,125,VALID,1.95276,
2007-03-12, 01:52:00,VALID,919.173,VALID,0,VALID,82.1622,VALID,160.673,VALID,23.0762,VALID,105,VALID,1.3793,
2007-03-12, 01:53:00,VALID,919.171,VALID,0,VALID,81.3903,VALID,162.031,VALID,23.0116,VALID,100,VALID,2.19731,
2007-03-12, 01:54:00,VALID,919.176,VALID,0,VALID,82.4979,VALID,158.686,VALID,22.9499,VALID,76,VALID,1.53385,
2007-03-12, 01:55:00,VALID,919.191,VALID,0,VALID,83.4579,VALID,154.729,VALID,22.9041,VALID,73,VALID,1.57051,
2007-03-12, 01:56:00,VALID,919.195,VALID,0,VALID,83.945,VALID,152.946,VALID,22.8524,VALID,87,VALID,1.48018,
2007-03-12, 01:57:00,VALID,919.213,VALID,0,VALID,83.0142,VALID,147.852,VALID,22.7966,VALID,130,VALID,1.14405,
2007-03-12, 01:58:00,VALID,919.217,VALID,0,VALID,83.0917,VALID,144.948,VALID,22.7875,VALID,102,VALID,1.96467,
2007-03-12, 01:59:00,VALID,919.221,VALID,0,VALID,82.0948,VALID,146.918,VALID,22.732,VALID,109,VALID,1.31414,
2007-03-12, 02:00:00,VALID,919.223,VALID,0,VALID,82.9544,VALID,154.933,VALID,22.7609,VALID,73,VALID,2.04148,
2007-03-12, 02:01:00,VALID,919.215,VALID,0,VALID,82.2957,VALID,172.661,VALID,22.7476,VALID,80,VALID,2.46003,
2007-03-12, 02:02:00,VALID,919.253,VALID,0,VALID,82.1406,VALID,199.712,VALID,22.7323,VALID,107,VALID,1.82676,
2007-03-12, 02:03:00,VALID,919.26,VALID,0,VALID,82.5182,VALID,218.39,VALID,22.7358,VALID,110,VALID,2.01639,
2007-03-12, 02:04:00,VALID,919.257,VALID,0,VALID,82.3224,VALID,227.951,VALID,22.7317,VALID,110,VALID,1.94624,
2007-03-12, 02:05:00,VALID,919.227,VALID,0,VALID,81.1996,VALID,428.392,VALID,22.7458,VALID,105,VALID,2.61365,
2007-03-12, 02:06:00,VALID,919.239,VALID,0,VALID,81.2962,VALID,459.892,VALID,22.807,VALID,127,VALID,2.50472,
2007-03-12, 02:07:00,VALID,919.212,VALID,0,VALID,81.5238,VALID,285.091,VALID,22.9268,VALID,156,VALID,1.73933,
2007-03-12, 02:08:00,VALID,919.199,VALID,0,VALID,81.1665,VALID,215.86,VALID,22.9918,VALID,147,VALID,2.31326,
2007-03-12, 02:09:00,VALID,919.21,VALID,0,VALID,81.7057,VALID,194.957,VALID,23.0075,VALID,142,VALID,2.74297,
2007-03-12, 02:10:00,VALID,919.207,VALID,0,VALID,82.358,VALID,191.136,VALID,22.9528,VALID,109,VALID,1.98679,
2007-03-12, 02:11:00,VALID,919.228,VALID,0,VALID,83.5177,VALID,203.413,VALID,22.9631,VALID,90,VALID,1.36812,
2007-03-12, 02:12:00,VALID,919.242,VALID,0,VALID,83.519,VALID,237.969,VALID,22.9921,VALID,122,VALID,1.36816,
2007-03-12, 02:13:00,VALID,919.25,VALID,0,VALID,83.327,VALID,262.897,VALID,23.0151,VALID,132,VALID,1.45526,
2007-03-12, 02:14:00,VALID,919.243,VALID,0,VALID,81.8189,VALID,281.389,VALID,23.0142,VALID,123,VALID,1.74163,
2007-03-12, 02:15:00,VALID,919.247,VALID,0,VALID,81.253,VALID,380.15,VALID,23.0272,VALID,109,VALID,2.29306,
2007-03-12, 02:16:00,VALID,919.249,VALID,0,VALID,82.0185,VALID,650.485,VALID,23.1019,VALID,106,VALID,1.69167,
2007-03-12, 02:17:00,VALID,919.263,VALID,0,VALID,82.269,VALID,599.287,VALID,23.2803,VALID,99,VALID,1.33594,
2007-03-12, 02:18:00,VALID,919.263,VALID,0,VALID,81.3089,VALID,410.155,VALID,23.4728,VALID,96,VALID,1.43477,
2007-03-12, 02:19:00,VALID,919.279,VALID,0,VALID,80.2484,VALID,378.112,VALID,23.5898,VALID,81,VALID,1.44844,
2007-03-12, 02:20:00,VALID,919.295,VALID,0,VALID,79.9623,VALID,332.502,VALID,23.6217,VALID,106,VALID,2.03574,
2007-03-12, 02:21:00,VALID,919.307,VALID,0,VALID,79.8873,VALID,291.051,VALID,23.6255,VALID,143,VALID,2.01797,
2007-03-12, 02:22:00,VALID,919.317,VALID,0,VALID,79.1726,VALID,263.661,VALID,23.5794,VALID,162,VALID,2.37991,
2007-03-12, 02:23:00,VALID,919.308,VALID,0,VALID,79.2261,VALID,325.947,VALID,23.5378,VALID,156,VALID,1.71962,
2007-03-12, 02:24:00,VALID,919.317,VALID,0,VALID,79.8758,VALID,251.333,VALID,23.5274,VALID,158,VALID,1.31326,
2007-03-12, 02:25:00,VALID,919.33,VALID,0,VALID,79.9903,VALID,233.011,VALID,23.5147,VALID,135,VALID,1.99163,
2007-03-12, 02:26:00,VALID,919.336,VALID,0,VALID,80.7329,VALID,224.945,VALID,23.479,VALID,139,VALID,1.44893,
2007-03-12, 02:27:00,VALID,919.349,VALID,0,VALID,81.5709,VALID,210.851,VALID,23.4625,VALID,143,VALID,1.08724,
2007-03-12, 02:28:00,VALID,919.354,VALID,0,VALID,81.4755,VALID,201.902,VALID,23.4787,VALID,125,VALID,1.61128,
2007-03-12, 02:29:00,VALID,919.376,VALID,0,VALID,82.0299,VALID,201.087,VALID,23.4462,VALID,102,VALID,1.90216,
2007-03-12, 02:30:00,VALID,919.378,VALID,0,VALID,81.2657,VALID,200.951,VALID,23.3878,VALID,88,VALID,2.3641,
2007-03-12, 02:31:00,VALID,919.409,VALID,0,VALID,80.6401,VALID,200.391,VALID,23.2939,VALID,123,VALID,2.57511,
2007-03-12, 02:32:00,VALID,919.411,VALID,0,VALID,80.7978,VALID,205.247,VALID,23.2156,VALID,143,VALID,1.64844,
2007-03-12, 02:33:00,VALID,919.423,VALID,0,VALID,81.3369,VALID,209.747,VALID,23.2153,VALID,120,VALID,1.56402,
2007-03-12, 02:34:00,VALID,919.431,VALID,0,VALID,81.8417,VALID,211.038,VALID,23.2192,VALID,118,VALID,1.84896,
2007-03-12, 02:35:00,VALID,919.422,VALID,0,VALID,81.4297,VALID,217.728,VALID,23.1864,VALID,85,VALID,2.41424,
2007-03-12, 02:36:00,VALID,919.428,VALID,0,VALID,81.6268,VALID,225.658,VALID,23.1504,VALID,77,VALID,2.09952,
2007-03-12, 02:37:00,VALID,919.434,VALID,0,VALID,82.5716,VALID,227.407,VALID,23.1896,VALID,71,VALID,1.16349,
2007-03-12, 02:38:00,VALID,919.422,VALID,0,VALID,82.6912,VALID,231.924,VALID,23.2573,VALID,78,VALID,1.39657,
2007-03-12, 02:39:00,VALID,919.437,VALID,0,VALID,81.6167,VALID,237.766,VALID,23.2841,VALID,76,VALID,1.14897,
2007-03-12, 02:40:00,VALID,919.446,VALID,0,VALID,81.9613,VALID,238.852,VALID,23.3461,VALID,78,VALID,1.92406,
2007-03-12, 02:41:00,VALID,919.449,VALID,0,VALID,82.7153,VALID,238.071,VALID,23.3724,VALID,66,VALID,1.30378,
2007-03-12, 02:42:00,VALID,919.463,VALID,0,VALID,82.1012,VALID,238.801,VALID,23.3978,VALID,57,VALID,2.14517,
2007-03-12, 02:43:00,VALID,919.48,VALID,0,VALID,82.1609,VALID,244.439,VALID,23.4076,VALID,57,VALID,2.07086,
2007-03-12, 02:44:00,VALID,919.502,VALID,0,VALID,82.4254,VALID,282.153,VALID,23.4397,VALID,66,VALID,1.52039,
2007-03-12, 02:45:00,VALID,919.514,VALID,0,VALID,82.2512,VALID,270.284,VALID,23.5112,VALID,118,VALID,1.19327,
2007-03-12, 02:46:00,VALID,919.526,VALID,0,VALID,80.9249,VALID,267.261,VALID,23.557,VALID,100,VALID,1.66845,
2007-03-12, 02:47:00,VALID,919.512,VALID,0,VALID,79.3507,VALID,260.758,VALID,23.5177,VALID,148,VALID,2.08121,
2007-03-12, 02:48:00,VALID,919.509,VALID,0,VALID,78.1426,VALID,251.724,VALID,23.4914,VALID,124,VALID,2.81559,
2007-03-12, 02:49:00,VALID,919.53,VALID,0,VALID,78.6411,VALID,242.639,VALID,23.4731,VALID,124,VALID,1.77153,
2007-03-12, 02:50:00,VALID,919.513,VALID,0,VALID,78.6487,VALID,238.19,VALID,23.4563,VALID,119,VALID,1.53106,
2007-03-12, 02:51:00,VALID,919.517,VALID,0,VALID,78.9425,VALID,240.771,VALID,23.4501,VALID,124,VALID,2.13932,
2007-03-12, 02:52:00,VALID,919.512,VALID,0,VALID,78.4847,VALID,248.599,VALID,23.4279,VALID,113,VALID,1.31875,
2007-03-12, 02:53:00,VALID,919.519,VALID,0,VALID,79.7398,VALID,256.614,VALID,23.4504,VALID,94,VALID,1.73855,
2007-03-12, 02:54:00,VALID,919.523,VALID,0,VALID,79.1943,VALID,263.78,VALID,23.4634,VALID,106,VALID,1.99018,
2007-03-12, 02:55:00,VALID,919.516,VALID,0,VALID,79.3189,VALID,269.571,VALID,23.4489,VALID,51,VALID,2.12573,
2007-03-12, 02:56:00,VALID,919.519,VALID,0,VALID,79.5007,VALID,275.31,VALID,23.5242,VALID,65,VALID,1.66315,
2007-03-12, 02:57:00,VALID,919.531,VALID,0,VALID,78.9603,VALID,280.489,VALID,23.6482,VALID,120,VALID,1.20273,
2007-03-12, 02:58:00,VALID,919.529,VALID,0,VALID,79.329,VALID,288.708,VALID,23.6636,VALID,89,VALID,1.03144,
2007-03-12, 02:59:00,VALID,919.543,VALID,0,VALID,80.6706,VALID,288.012,VALID,23.7321,VALID,78,VALID,0.65952,
2007-03-12, 03:00:00,VALID,919.537,VALID,0,VALID,79.1625,VALID,277.144,VALID,23.7909,VALID,94,VALID,1.58802,
2007-03-12, 03:01:00,VALID,919.547,VALID,0,VALID,78.2622,VALID,256.088,VALID,23.7646,VALID,80,VALID,1.24746,
2007-03-12, 03:02:00,VALID,919.542,VALID,0,VALID,78.4008,VALID,233.232,VALID,23.7652,VALID,107,VALID,1.21701,
2007-03-12, 03:03:00,VALID,919.536,VALID,0,VALID,79.9941,VALID,212.617,VALID,23.7752,VALID,93,VALID,1.17227,
2007-03-12, 03:04:00,VALID,919.529,VALID,0,VALID,80.0424,VALID,199.983,VALID,23.7974,VALID,48,VALID,1.29688,
2007-03-12, 03:05:00,VALID,919.518,VALID,0,VALID,79.0951,VALID,196.893,VALID,23.8104,VALID,94,VALID,1.06233,
2007-03-12, 03:06:00,VALID,919.499,VALID,0,VALID,78.8255,VALID,200.9,VALID,23.7746,VALID,130,VALID,1.64773,
2007-03-12, 03:07:00,VALID,919.497,VALID,0,VALID,78.1617,VALID,209.849,VALID,23.6813,VALID,133,VALID,1.40607,
2007-03-12, 03:08:00,VALID,919.494,VALID,0,VALID,78.5394,VALID,226.932,VALID,23.6261,VALID,127,VALID,1.15483,
2007-03-12, 03:09:00,VALID,919.477,VALID,0,VALID,78.3842,VALID,262.778,VALID,23.5963,VALID,138,VALID,1.18423,
2007-03-12, 03:10:00,VALID,919.475,VALID,0,VALID,79.2973,VALID,311.31,VALID,23.5933,VALID,120,VALID,1.32358,
2007-03-12, 03:11:00,VALID,919.474,VALID,0,VALID,79.7957,VALID,330.09,VALID,23.6155,VALID,135,VALID,1.10584,
2007-03-12, 03:12:00,VALID,919.475,VALID,0,VALID,79.4804,VALID,420.123,VALID,23.6837,VALID,138,VALID,1.84448,
2007-03-12, 03:13:00,VALID,919.469,VALID,0,VALID,79.6024,VALID,696.927,VALID,23.7723,VALID,156,VALID,1.01753,
2007-03-12, 03:14:00,VALID,919.472,VALID,0,VALID,78.3741,VALID,548.328,VALID,23.9926,VALID,164,VALID,1.42006,
2007-03-12, 03:15:00,VALID,919.474,VALID,0,VALID,76.1093,VALID,406.198,VALID,24.2271,VALID,160,VALID,1.73509,
2007-03-12, 03:16:00,VALID,919.498,VALID,0,VALID,75.3705,VALID,445.135,VALID,24.2906,VALID,136,VALID,2.05629,
2007-03-12, 03:17:00,VALID,919.513,VALID,0,VALID,75.1417,VALID,403.448,VALID,24.2688,VALID,92,VALID,1.13796,
2007-03-12, 03:18:00,VALID,919.509,VALID,0,VALID,75.8639,VALID,391.85,VALID,24.3597,VALID,75,VALID,1.25999,
2007-03-12, 03:19:00,VALID,919.527,VALID,0,VALID,77.311,VALID,383.835,VALID,24.4888,VALID,131,VALID,1.23289,
2007-03-12, 03:20:00,VALID,919.547,VALID,0,VALID,75.3032,VALID,375.973,VALID,24.5512,VALID,143,VALID,1.45979,
2007-03-12, 03:21:00,VALID,919.556,VALID,0,VALID,75.4901,VALID,386.62,VALID,24.479,VALID,146,VALID,1.998,
2007-03-12, 03:22:00,VALID,919.567,VALID,0,VALID,76.3217,VALID,610.257,VALID,24.4052,VALID,144,VALID,1.38245,
2007-03-12, 03:23:00,VALID,919.555,VALID,0,VALID,76.0636,VALID,494.312,VALID,24.503,VALID,148,VALID,0.647294,
2007-03-12, 03:24:00,VALID,919.552,VALID,0,VALID,74.3062,VALID,826.966,VALID,24.6558,VALID,105,VALID,1.45222,
2007-03-12, 03:25:00,VALID,919.523,VALID,0,VALID,74.6953,VALID,862.405,VALID,24.7919,VALID,132,VALID,1.69029,
2007-03-12, 03:26:00,VALID,919.506,VALID,0,VALID,73.3652,VALID,789.065,VALID,24.9161,VALID,142,VALID,1.49691,
2007-03-12, 03:27:00,VALID,919.495,VALID,0,VALID,72.5628,VALID,808.508,VALID,25.0815,VALID,129,VALID,0.924851,
2007-03-12, 03:28:00,VALID,919.473,VALID,0,VALID,72.5819,VALID,769.877,VALID,25.2833,VALID,159,VALID,0.796875,
2007-03-12, 03:29:00,VALID,919.468,VALID,0,VALID,72.69,VALID,844.44,VALID,25.5915,VALID,139,VALID,0.841704,
2007-03-12, 03:30:00,VALID,919.461,VALID,0,VALID,69.8047,VALID,856.14,VALID,25.8811,VALID,21,VALID,1.54342,
2007-03-12, 03:31:00,VALID,919.46,VALID,0,VALID,70.0247,VALID,868.62,VALID,25.9533,VALID,347,VALID,0.825648,
2007-03-12, 03:32:00,VALID,919.448,VALID,0,VALID,70.19,VALID,851.13,VALID,26.1305,VALID,64,VALID,0.764382,
2007-03-12, 03:33:00,VALID,919.453,VALID,0,VALID,69.0825,VALID,583.716,VALID,26.4101,VALID,78,VALID,2.00208,
2007-03-12, 03:34:00,VALID,919.415,VALID,0,VALID,67.8846,VALID,432.943,VALID,26.2804,VALID,92,VALID,1.94822,
2007-03-12, 03:35:00,VALID,919.418,VALID,0,VALID,69.8772,VALID,578.01,VALID,25.9942,VALID,164,VALID,1.53786,
2007-03-12, 03:36:00,VALID,919.404,VALID,0,VALID,70.1735,VALID,910.037,VALID,25.8801,VALID,138,VALID,2.24945,